Tracking 20093 objects as of 14-Dec-2019
HD Live streaming from Space Station
objects crossing your sky now

TOS R/B

Track TOS R/B now!


NORAD ID: 22797
Int'l Code: 1993-058D
Perigee: 294.3 km
Apogee: 38,368.8 km
Inclination: 14.5 °
Period: 683.5 minutes
Semi major axis: 25702 km
RCS: 9.198 m2 (large)
Launch date: September 12, 1993
Source: United States (US)
Launch site: AIR FORCE EASTERN TEST RANGE (AFETR)

Note: This is a ROCKET BODY
aabbcc
Your satellite tracking list
Your tracking list is empty




NASA's NSSDC Master Catalog

Two Line Element Set (TLE):
1 22797U 93058D   19341.03333232  .00000065  00000-0  11378-3 0  9993
2 22797  14.5319 212.0326 7406739 255.1578  19.2754  2.10687308197850
Source of the keplerian elements: AFSPC